GW3202 Weather Reports


time (UTC)temp
F
wind
direction
speed
knots
gust
knots
rain 1hr
in
rain 24hr
in
rain mn
in
humidity
%
barometer
mb
20260906132003 64 314 0.0 1.7 0.00 0.00 0.00 97 1020.1
20260906131004 64 246 0.9 2.6 0.00 0.00 0.00 96 1020.0
20260906130003 65 263 1.7 5.2 0.00 0.00 0.00 95 1019.8
20260906125003 65 258 2.6 5.2 0.00 0.00 0.00 94 1019.6
20260906124003 65 356 0.9 4.3 0.00 0.00 0.00 94 1019.6
20260906123003 65 261 0.9 7.0 0.00 0.00 0.00 95 1019.5
20260906122003 65 49 1.7 1.7 0.00 0.00 0.00 95 1019.6
20260906121003 65 18 0.9 2.6 0.00 0.00 0.00 95 1019.2
20260906120002 65 125 1.7 2.6 0.00 0.00 0.00 95 1019.4
20260906115004 65 168 1.7 2.6 0.00 0.00 0.00 96 1019.1
20260906114003 65 245 0.9 2.6 0.00 0.00 0.00 96 1019.2
20260906113003 65 232 1.7 2.6 0.00 0.00 0.00 95 1019.1
20260906112003 65 301 1.7 4.3 0.00 0.00 0.00 95 1019.1
20260906110003 66 249 3.5 6.1 0.00 0.00 0.00 93 1019.1
20260906104003 66 327 0.9 1.7 0.00 0.00 0.00 95 1019.1
20260906103004 66 257 0.9 1.7 0.00 0.00 0.00 96 1019.1
20260906102004 66 346 0.0 1.7 0.00 0.00 0.00 96 1019.2
20260906101002 65 119 1.7 4.3 0.00 0.00 0.00 96 1019.1
20260906100004 66 201 0.9 2.6 0.00 0.00 0.00 96 1019.2
20260906095003 65 283 0.9 2.6 0.00 0.00 0.00 96 1019.0
20260906094003 66 272 0.9 2.6 0.00 0.00 0.00 96 1019.0
20260906093003 66 269 1.7 2.6 0.00 0.00 0.00 96 1019.3
20260906092003 66 226 1.7 2.6 0.00 0.00 0.00 95 1019.5
20260906091004 67 3 0.9 2.6 0.00 0.00 0.00 94 1019.6
20260906090003 68 312 1.7 4.3 0.00 0.00 0.00 91 1019.8
20260906085003 67 80 0.9 2.6 0.00 0.00 0.00 87 1019.7
20260906083004 67 151 0.0 2.6 0.00 0.00 0.00 90 1019.6
20260906082003 67 155 2.6 7.8 0.00 0.00 0.00 91 1019.7
20260906081004 66 118 1.7 7.8 0.00 0.00 0.00 95 1019.6
20260906080003 66 284 0.0 1.7 0.00 0.00 0.00 95 1019.9
20260906075004 65 0 0.9 2.6 0.00 0.00 0.00 95 1019.8
20260906074003 65 271 0.9 2.6 0.00 0.00 0.00 95 1019.8
20260906073003 65 270 0.0 1.7 0.00 0.00 0.00 95 1019.9
20260906072003 66 272 0.9 1.7 0.00 0.00 0.00 95 1019.8
20260906071003 66 75 0.0 1.7 0.00 0.00 0.00 95 1019.9
20260906070003 66 14 0.0 1.7 0.00 0.00 0.00 95 1019.9
20260906064003 67 170 0.9 5.2 0.00 0.00 0.00 94 1020.0
20260906063003 67 158 2.6 2.6 0.00 0.00 0.00 94 1019.8
20260906061005 67 112 0.0 2.6 0.00 0.00 0.00 94 1020.0
20260906060004 67 118 0.0 5.2 0.00 0.00 0.00 94 1020.1
20260906054003 68 254 0.9 6.1 0.00 0.00 0.00 93 1020.1
20260906052003 68 154 0.9 2.6 0.00 0.00 0.00 93 1020.2
20260906050003 69 233 0.9 4.3 0.00 0.00 0.00 92 1020.3
20260906045003 69 103 1.7 6.1 0.00 0.00 0.00 92 1020.3
20260906044003 69 150 2.6 4.3 0.00 0.00 0.00 92 1020.4
20260906043003 69 198 1.7 6.1 0.00 0.00 0.00 92 1020.4
20260906042003 69 122 1.7 6.1 0.00 0.00 0.00 93 1020.5
20260906041003 69 203 2.6 8.7 0.00 0.00 0.00 93 1020.4
20260906040004 69 135 1.7 7.0 0.00 0.00 0.00 93 1020.5
20260906035004 69 157 4.3 11.3 0.00 0.00 0.00 93 1020.4
20260906034003 69 143 3.5 10.4 0.00 0.00 0.00 93 1020.1
20260906033003 69 156 5.2 13.0 0.00 0.00 0.00 93 1019.8
20260906032003 69 166 2.6 13.0 0.00 0.00 0.00 93 1019.8
20260906030003 69 139 5.2 14.8 0.00 0.00 0.00 93 1019.7
20260906025003 69 157 6.1 14.8 0.00 0.00 0.00 93 1019.3
20260906024003 69 161 6.1 14.8 0.00 0.00 0.00 92 1019.2
20260906023003 70 118 2.6 13.9 0.00 0.00 0.00 92 1019.3
20260906022003 70 134 8.7 18.2 0.00 0.00 0.00 92 1019.2
20260906021006 70 178 7.8 18.2 0.00 0.00 0.00 93 1018.9
20260906014004 70 138 12.2 19.1 0.00 0.00 0.00 92 1018.3
20260906013003 70 144 5.2 17.4 0.00 0.00 0.00 90 1018.1
20260906012003 71 131 7.8 17.4 0.00 0.00 0.00 90 1018.2
20260906011004 71 126 3.5 17.4 0.00 0.00 0.00 90 1018.2
20260906010004 72 133 5.2 13.9 0.00 0.00 0.00 88 1018.0
20260906005004 72 149 6.1 14.8 0.00 0.00 0.00 87 1018.0
20260906004003 72 151 4.3 13.9 0.00 0.00 0.00 86 1017.6
20260906003003 73 151 2.6 12.2 0.00 0.00 0.00 85 1017.7
20260906001004 74 184 3.5 17.4 0.00 0.00 0.00 84 1017.4
20260906000003 73 195 6.1 17.4 0.00 0.00 0.00 84 1017.5
20260905235004 74 218 8.7 14.8 0.00 0.00 0.00 84 1017.2
20260905233003 74 149 4.3 7.8 0.00 0.00 0.00 82 1017.5
20260905232003 73 278 0.0 2.6 0.00 0.00 0.00 74 1017.5
20260905231003 73 105 0.9 4.3 0.00 0.00 0.00 75 1017.5
20260905230005 72 92 0.0 4.3 0.00 0.00 0.00 75 1017.8
20260905224004 72 272 0.0 5.2 0.00 0.00 0.00 74 1017.8
20260905223003 72 316 2.6 7.8 0.00 0.00 0.00 76 1017.9
20260905222005 74 284 0.0 2.6 0.00 0.00 0.00 76 1017.6
20260905221003 73 47 0.9 7.8 0.00 0.00 0.00 77 1017.6
20260905220003 74 37 2.6 4.3 0.00 0.00 0.00 76 1017.6
20260905215003 74 74 0.9 7.8 0.00 0.00 0.00 76 1017.8
20260905214004 74 7 2.6 7.8 0.00 0.00 0.00 76 1018.3
20260905213005 73 12 2.6 11.3 0.00 0.00 0.00 77 1018.4
20260905212004 76 145 1.7 12.2 0.00 0.00 0.00 78 1017.9
20260905211003 76 159 4.3 13.0 0.00 0.00 0.00 79 1017.6
20260905204003 78 163 5.2 13.9 0.00 0.00 0.00 75 1017.8
20260905203004 79 157 10.4 13.9 0.00 0.00 0.00 72 1018.1
20260905201004 80 150 6.1 14.8 0.00 0.00 0.00 68 1018.2
20260905200004 79 207 2.6 13.0 0.00 0.00 0.00 68 1018.5
20260905194004 80 156 1.7 7.0 0.00 0.00 0.00 67 1018.7
20260905193005 79 319 3.5 4.3 0.00 0.00 0.00 65 1018.8
20260905192004 76 180 0.9 6.1 0.00 0.00 0.00 67 1018.9
20260905191004 76 195 2.6 5.2 0.00 0.00 0.00 71 1019.2
20260905190004 78 253 4.3 7.0 0.00 0.00 0.00 72 1019.5
20260905185004 76 165 2.6 7.0 0.00 0.00 0.00 75 1019.8
20260905184003 77 176 1.7 7.0 0.00 0.00 0.00 74 1019.9
20260905183003 77 189 0.9 6.1 0.00 0.00 0.00 70 1019.9
20260905182004 77 292 2.6 5.2 0.00 0.00 0.00 70 1020.0
20260905181004 76 239 1.7 6.1 0.00 0.00 0.00 71 1020.3
20260905180003 76 194 2.6 7.8 0.00 0.00 0.00 73 1020.2
20260905175004 76 218 1.7 4.3 0.00 0.00 0.00 72 1020.4
20260905174004 76 233 0.9 7.8 0.00 0.00 0.00 73 1020.6
20260905173004 74 249 1.7 4.3 0.00 0.00 0.00 72 1020.6
20260905172003 73 293 1.7 6.1 0.00 0.00 0.00 73 1020.8
20260905171003 73 218 2.6 5.2 0.00 0.00 0.00 74 1020.6
20260905170004 71 317 0.0 4.3 0.00 0.00 0.00 76 1020.9
20260905165003 72 69 1.7 6.1 0.00 0.00 0.00 79 1021.0
20260905164003 73 280 3.5 5.2 0.00 0.00 0.00 76 1021.1
20260905163004 71 117 1.7 5.2 0.00 0.00 0.00 77 1021.2
20260905162003 71 150 0.9 4.3 0.00 0.00 0.00 76 1021.2
20260905161004 72 12 0.9 2.6 0.00 0.00 0.00 77 1021.5
20260905160003 68 171 0.9 5.2 0.00 0.00 0.00 81 1021.5
20260905155004 69 339 1.7 5.2 0.00 0.00 0.00 83 1021.4
20260905154003 69 334 3.5 5.2 0.00 0.00 0.00 86 1021.5
20260905152004 69 26 1.7 5.2 0.00 0.00 0.00 85 1021.4
20260905150004 69 2 1.7 2.6 0.00 0.00 0.00 84 1021.1
20260905145004 68 1 2.6 4.3 0.00 0.00 0.00 84 1021.0
20260905144003 69 87 0.9 5.2 0.00 0.00 0.00 86 1021.2
20260905143003 67 82 0.9 4.3 0.00 0.00 0.00 87 1021.1
20260905142005 67 52 0.0 2.6 0.00 0.00 0.00 88 1021.0
20260905141003 66 52 0.9 2.6 0.00 0.00 0.00 90 1020.7
20260905140004 66 85 0.9 2.6 0.00 0.00 0.00 92 1020.9
20260905134004 65 11 0.9 1.7 0.00 0.00 0.00 94 1020.8
20260905133003 65 145 0.0 1.7 0.00 0.00 0.00 95 1020.7